[[{"header":{"parameterUnit":"m.s-1","parameterCategory":1,"la1":30.2991,"la2":30.254,"lo1":-89.0895,"lo2":-89.0444,"dy":0.0017,"dx":0.0017,"nx":28,"ny":28,"refTime":"2024-06-03T21:00:00:Z","depth":0,"parameterNumber":2,"parameterNumberName":"U-component_of_WINDS"},"data":[0,0,0,0,0,0,0,0,0,0,0,0,0,0,0,0,0,0,0,0,0,0,0,0,0,0,0,0,0,0,0,0,0,0,0,0,0,0,0,0,0,0,0,0,0,0,0,0,0,0,0,0,0,0,0,0,0,0,-0.2171,-0.2171,0,-0.2163,-0.2163,-0.2163,-0.2167,-0.2167,-0.2167,-0.2168,-0.2161,-0.216,-0.216,0,0,0,0,0,0,0,0,0,0,0,0,0,-0.2189,-0.2189,-0.2171,-0.2171,-0.2171,-0.2163,-0.2163,-0.2163,-0.2167,-0.2167,-0.2168,-0.2168,-0.2161,-0.216,-0.216,0,0,0,0,0,0,0,0,0,0,0,0,0,-0.2181,-0.2189,-0.2171,-0.2172,-0.2172,-0.2163,-0.2163,-0.2163,-0.2167,-0.2167,-0.2168,-0.2168,-0.2161,-0.216,-0.216,-0.2151,0,0,-0.2158,-0.2158,0,0,0,0,0,0,0,0,-0.2182,-0.2181,-0.2172,-0.2172,-0.2172,-0.2166,-0.2167,-0.2159,-0.2167,-0.2169,-0.2168,-0.2168,-0.2162,-0.2162,-0.216,-0.215,-0.215,-0.2158,-0.2158,-0.2158,-0.2157,0,0,0,0,0,0,0,-0.2182,-0.2181,-0.2168,-0.2172,-0.2171,-0.2173,-0.2172,-0.2166,-0.2164,-0.2169,-0.2169,-0.2168,-0.2162,-0.216,-0.216,-0.215,-0.2158,-0.2158,-0.2157,-0.2157,-0.2133,-0.2132,0,0,0,0,0,0,-0.2183,-0.2182,-0.2168,-0.2168,-0.2178,-0.2172,-0.2171,-0.2168,-0.2164,-0.2164,-0.2168,-0.2168,-0.2161,-0.216,-0.2159,-0.2148,-0.2158,-0.2157,-0.2157,-0.2133,-0.2132,-0.2132,0,0,0,0,0,0,-0.2183,-0.2182,-0.2168,-0.2175,-0.2173,-0.2171,-0.2168,-0.2168,-0.2165,-0.2163,-0.2163,-0.2166,-0.2161,-0.216,-0.2153,-0.2148,-0.2157,-0.2156,-0.2133,-0.2133,-0.2132,-0.2126,0,0,0,0,0,0,-0.2184,-0.2182,-0.2178,-0.2175,-0.2173,-0.2162,-0.2167,-0.2167,-0.2164,-0.2165,-0.2161,-0.2161,-0.2161,-0.2154,-0.2152,-0.2147,-0.2156,-0.2134,-0.2133,-0.2132,-0.2127,-0.2125,-0.2124,0,0,0,0,0,-0.2184,-0.2176,-0.2178,-0.2176,-0.2168,-0.2161,-0.216,-0.2161,-0.2164,-0.216,-0.2159,-0.2161,-0.2149,-0.2153,-0.2151,-0.2146,-0.2134,-0.2133,-0.2133,-0.2127,-0.2126,-0.2124,0,0,0,0,0,0,-0.2179,-0.2176,-0.2177,-0.2168,-0.2165,-0.2162,-0.2157,-0.2159,-0.2155,-0.2156,-0.2156,-0.2155,-0.2148,-0.2146,-0.2151,-0.2137,-0.2142,-0.2141,-0.2138,-0.2137,-0.2136,-0.2136,-0.2155,0,0,0,0,0,-0.2177,-0.2172,-0.2169,-0.2162,-0.216,-0.2159,-0.2156,-0.2157,-0.2153,-0.2152,-0.215,-0.2147,-0.2143,-0.214,-0.2136,-0.2127,-0.2126,-0.2122,-0.2121,-0.212,-0.2119,-0.2115,-0.2113,-0.213,-0.213,-0.213,0,0,-0.2173,-0.217,-0.2167,-0.2161,-0.2158,-0.2153,-0.2158,-0.2152,-0.2148,-0.2151,-0.2144,-0.2143,-0.214,-0.2131,-0.2128,-0.213,-0.2115,-0.2119,-0.2119,-0.2118,-0.2114,-0.2112,-0.2111,-0.2129,-0.2129,-0.2129,0,0,-0.2162,-0.216,-0.2153,-0.215,-0.2147,-0.2146,-0.2144,-0.2141,-0.214,-0.2133,-0.2135,-0.2131,-0.2123,-0.2121,-0.2119,-0.2107,-0.2109,-0.2106,-0.21,-0.2095,-0.2094,-0.2093,-0.2089,-0.2087,-0.2105,-0.2105,-0.2105,0,-0.2157,-0.2149,-0.2149,-0.2143,-0.214,-0.2143,-0.2136,-0.2134,-0.2129,-0.2127,-0.213,-0.212,-0.2118,-0.2109,-0.2107,-0.2105,-0.2103,-0.2106,-0.2094,-0.2093,-0.2092,-0.2088,-0.2086,-0.2105,-0.2105,-0.2105,-0.2105,0,-0.2143,-0.2137,-0.2132,-0.2127,-0.2124,-0.2118,-0.2117,-0.2114,-0.2115,-0.2114,-0.2107,-0.2105,-0.21,-0.2098,-0.2099,-0.209,-0.2091,-0.2094,-0.2099,-0.209,-0.2086,-0.2085,-0.2104,-0.2104,-0.2104,-0.2104,0,0,-0.2129,-0.2124,-0.2122,-0.212,-0.2116,-0.2112,-0.2106,-0.2101,-0.2099,-0.2095,-0.209,-0.2084,-0.2086,-0.2084,-0.2084,-0.208,-0.2072,-0.2084,-0.2084,-0.2081,-0.2061,-0.2059,-0.2058,-0.2073,-0.2073,-0.2073,-0.2062,0,-0.2118,-0.2107,-0.2107,-0.2097,-0.2092,-0.2094,-0.2089,-0.2087,-0.2086,-0.2082,-0.2081,-0.2076,-0.208,-0.2078,-0.2074,-0.2074,-0.2068,-0.2074,-0.2069,-0.2068,-0.2069,-0.2056,-0.2053,-0.2043,-0.206,-0.206,-0.206,0,-0.2103,-0.2099,-0.2089,-0.2086,-0.2084,-0.2079,-0.2075,-0.2071,-0.2068,-0.2068,-0.2065,-0.2066,-0.206,-0.2065,-0.2057,-0.2062,-0.206,-0.2059,-0.2059,-0.2058,-0.2064,-0.2055,-0.204,-0.2039,-0.2058,-0.2058,-0.2058,0,-0.2094,-0.2086,-0.2079,-0.2077,-0.2073,-0.207,-0.2068,-0.2066,-0.2063,-0.2059,-0.2057,-0.2053,-0.2051,-0.2048,-0.2048,-0.2052,-0.204,-0.2045,-0.204,-0.204,-0.2038,-0.2038,-0.2022,-0.2036,-0.2036,-0.2036,-0.2036,0,-0.2081,-0.2075,-0.2074,-0.207,-0.2063,-0.2063,-0.2056,-0.2055,-0.2053,-0.2048,-0.205,-0.2046,-0.2047,-0.2043,-0.2043,-0.2036,-0.2035,-0.2035,-0.2035,-0.2035,-0.2035,-0.2033,-0.2034,-0.2036,-0.2036,-0.2036,-0.2036,0,-0.207,-0.2069,-0.2061,-0.2059,-0.2058,-0.2053,-0.205,-0.2046,-0.2046,-0.204,-0.2039,-0.2038,-0.2033,-0.2033,-0.2028,-0.2028,-0.202,-0.2021,-0.2021,-0.2021,-0.2016,-0.2017,-0.1999,-0.1997,-0.2012,-0.2012,-0.2012,0,-0.2062,-0.2057,-0.2054,-0.2051,-0.2049,-0.2044,-0.2041,-0.2042,-0.2039,-0.2035,-0.2031,-0.2027,-0.2023,-0.2016,-0.2015,-0.2011,-0.2012,-0.2006,-0.2011,-0.2011,-0.2011,-0.2012,-0.2011,-0.2005,-0.2004,-0.2004,-0.2004,0,-0.2048,-0.2048,-0.2044,-0.2039,-0.2036,-0.2032,-0.2029,-0.2027,-0.2027,-0.2023,-0.2018,-0.2016,-0.201,-0.2006,-0.2002,-0.2001,-0.2002,-0.2003,-0.2001,-0.2001,-0.2001,-0.2001,-0.2018,-0.2003,-0.2003,-0.2003,-0.2003,-0.2003,-0.2038,-0.2034,-0.2031,-0.2026,-0.2024,-0.2021,-0.2017,-0.2016,-0.2011,-0.2007,-0.2007,-0.2002,-0.1999,-0.1994,-0.1993,-0.1989,-0.1991,-0.1989,-0.1988,-0.1988,-0.1987,-0.2002,-0.1988,-0.1988,-0.1988,-0.1988,-0.1988,0,-0.2024,-0.2022,-0.2018,-0.2013,-0.201,-0.2012,-0.2008,-0.2005,-0.2,-0.1998,-0.1994,-0.1989,-0.1984,-0.1983,-0.1979,-0.1976,-0.1977,-0.1975,-0.1975,-0.1975,-0.1986,-0.1987,-0.1974,-0.1974,-0.1974,-0.1974,-0.1974,-0.1974,-0.2017,-0.201,-0.2009,-0.2001,-0.1999,-0.1994,-0.1992,-0.1989,-0.1987,-0.1981,-0.1977,-0.1976,-0.1974,-0.197,-0.1966,-0.1966,-0.1965,-0.1962,-0.1963,-0.1973,-0.1974,-0.1975,-0.1977,-0.1962,-0.1962,-0.1952,-0.1952,-0.1952]},{"header":{"parameterUnit":"m.s-1","parameterCategory":1,"la1":30.2991,"la2":30.254,"lo1":-89.0895,"lo2":-89.0444,"dy":0.0017,"dx":0.0017,"nx":28,"ny":28,"refTime":"2024-06-03T21:00:00:Z","depth":0,"parameterNumber":3,"parameterNumberName":"V-component_of_WINDS"},"data":[0,0,0,0,0,0,0,0,0,0,0,0,0,0,0,0,0,0,0,0,0,0,0,0,0,0,0,0,0,0,0,0,0,0,0,0,0,0,0,0,0,0,0,0,0,0,0,0,0,0,0,0,0,0,0,0,0,0,3.3717,3.3719,0,3.3898,3.39,3.3902,3.3958,3.3958,3.3957,3.3956,3.4143,3.4149,3.4154,0,0,0,0,0,0,0,0,0,0,0,0,0,3.3422,3.3428,3.3716,3.3719,3.3721,3.3897,3.39,3.3902,3.3959,3.3958,3.3957,3.3956,3.4141,3.4148,3.4155,0,0,0,0,0,0,0,0,0,0,0,0,0,3.3571,3.3429,3.3716,3.377,3.3777,3.3897,3.39,3.3903,3.3959,3.3958,3.3956,3.3955,3.4139,3.4147,3.4156,3.4235,0,0,3.4182,3.4186,0,0,0,0,0,0,0,0,3.3563,3.3582,3.376,3.3767,3.3774,3.3904,3.3865,3.4014,3.3959,3.389,3.3956,3.3954,3.4065,3.4079,3.4116,3.4244,3.4252,3.4183,3.4188,3.4192,3.4194,0,0,0,0,0,0,0,3.3552,3.3575,3.3788,3.3763,3.3771,3.3787,3.3806,3.3893,3.3982,3.3896,3.39,3.3921,3.4068,3.4108,3.4121,3.4255,3.4183,3.419,3.4196,3.4199,3.4459,3.446,0,0,0,0,0,0,3.3533,3.3566,3.3782,3.3794,3.3663,3.3793,3.3815,3.3864,3.3982,3.3998,3.3922,3.3923,3.4093,3.4111,3.4128,3.423,3.4192,3.42,3.4205,3.4457,3.4459,3.4461,0,0,0,0,0,0,3.3526,3.3551,3.3775,3.3681,3.3711,3.3799,3.3854,3.3868,3.3908,3.4001,3.4018,3.3946,3.4093,3.4116,3.4208,3.4237,3.4204,3.4212,3.4455,3.4458,3.446,3.4434,0,0,0,0,0,0,3.3517,3.3549,3.3579,3.3681,3.3715,3.3852,3.3855,3.3873,3.3922,3.3925,3.4028,3.4044,3.4094,3.4195,3.4217,3.4249,3.4219,3.4453,3.4456,3.4459,3.4433,3.4436,3.4438,0,0,0,0,0,3.3507,3.3565,3.358,3.3606,3.3755,3.3854,3.3873,3.3929,3.3924,3.3956,3.4017,3.404,3.423,3.4204,3.4229,3.4264,3.4451,3.4455,3.4459,3.4432,3.4435,3.4438,0,0,0,0,0,0,3.3465,3.3579,3.3598,3.369,3.3762,3.3863,3.3905,3.3931,3.4006,3.4005,3.4072,3.4095,3.4183,3.4233,3.4202,3.4348,3.4342,3.4351,3.4313,3.4317,3.4319,3.4306,3.4226,0,0,0,0,0,3.3466,3.3535,3.3632,3.3704,3.3739,3.3816,3.3861,3.3898,3.3975,3.4005,3.4072,3.4146,3.4223,3.4272,3.4348,3.444,3.4464,3.4476,3.4478,3.448,3.4488,3.4542,3.4549,3.4473,3.4473,3.4473,0,0,3.347,3.3541,3.3581,3.3698,3.3758,3.3829,3.3841,3.3916,3.397,3.4017,3.4109,3.4161,3.4248,3.4341,3.4385,3.4385,3.4514,3.4485,3.4485,3.4493,3.4546,3.4553,3.456,3.4476,3.4475,3.4475,0,0,3.3514,3.3574,3.3642,3.3701,3.3791,3.3842,3.3858,3.3955,3.3991,3.4085,3.4122,3.4187,3.4317,3.4378,3.4427,3.4494,3.4519,3.4516,3.453,3.4582,3.4588,3.4594,3.462,3.4628,3.4523,3.4523,3.4523,0,3.3508,3.3616,3.3673,3.3747,3.3798,3.3843,3.3913,3.3968,3.4078,3.4113,3.411,3.4275,3.4337,3.4446,3.4463,3.4499,3.4521,3.4506,3.4582,3.4589,3.4595,3.462,3.463,3.4522,3.4522,3.4523,3.4523,0,3.3605,3.368,3.3724,3.3829,3.3885,3.3956,3.4025,3.4075,3.4107,3.4158,3.4253,3.4328,3.4421,3.4449,3.4481,3.4563,3.456,3.4569,3.4565,3.46,3.4625,3.4635,3.4521,3.4522,3.4522,3.4522,0,0,3.3629,3.3765,3.378,3.3829,3.3931,3.3991,3.4064,3.4154,3.4196,3.4271,3.4335,3.4444,3.4453,3.4508,3.4547,3.4592,3.4643,3.4596,3.4599,3.4604,3.474,3.4734,3.4745,3.466,3.4662,3.4663,3.4734,0,3.3688,3.3821,3.3875,3.3983,3.4054,3.4097,3.4162,3.4232,3.4282,3.4349,3.4404,3.4481,3.4486,3.452,3.4566,3.4627,3.4672,3.4622,3.4722,3.4725,3.4701,3.4758,3.4752,3.4814,3.4744,3.4745,3.4746,0,3.3775,3.385,3.3965,3.4059,3.4091,3.4148,3.4235,3.4299,3.438,3.4413,3.4474,3.4511,3.4591,3.4579,3.4691,3.4657,3.47,3.4736,3.474,3.4753,3.4739,3.4774,3.4835,3.4846,3.4762,3.4761,3.476,0,3.3783,3.3913,3.3999,3.4039,3.4151,3.419,3.4239,3.4318,3.4369,3.4445,3.448,3.4564,3.4611,3.4676,3.4735,3.4721,3.4842,3.4835,3.4873,3.4871,3.4898,3.4896,3.4969,3.4922,3.4922,3.4922,3.4922,0,3.3845,3.3914,3.4004,3.4057,3.4137,3.4198,3.4275,3.4326,3.4397,3.4462,3.4504,3.4564,3.4637,3.4707,3.4753,3.484,3.486,3.489,3.4902,3.4888,3.4884,3.4919,3.4917,3.4925,3.4924,3.4924,3.4923,0,3.3869,3.3931,3.4028,3.4126,3.4152,3.4207,3.4291,3.4345,3.4396,3.4478,3.45,3.4581,3.4665,3.473,3.4839,3.4871,3.4963,3.4975,3.4936,3.4943,3.4978,3.4974,3.5077,3.5095,3.5034,3.5034,3.5035,0,3.3905,3.3959,3.4062,3.4109,3.4157,3.423,3.4283,3.4345,3.4397,3.4494,3.4537,3.4624,3.4697,3.483,3.4899,3.4983,3.4998,3.5029,3.5011,3.4996,3.5001,3.4998,3.5005,3.5031,3.5032,3.5032,3.5032,0,3.3963,3.3991,3.4064,3.4148,3.4209,3.4279,3.4349,3.4385,3.446,3.4517,3.4604,3.466,3.4772,3.4859,3.495,3.5001,3.503,3.5037,3.5051,3.5037,3.5013,3.5029,3.4944,3.5035,3.5034,3.5034,3.5034,3.5034,3.3996,3.4046,3.4127,3.4208,3.4267,3.4332,3.4388,3.4445,3.4518,3.4614,3.4646,3.4736,3.4817,3.4942,3.4994,3.5066,3.5067,3.5086,3.5091,3.5096,3.5095,3.5,3.5082,3.5082,3.5082,3.5082,3.5082,0,3.4058,3.4112,3.4185,3.4282,3.4345,3.4365,3.4444,3.4497,3.4575,3.4647,3.4718,3.4818,3.4902,3.4977,3.5065,3.5108,3.5124,3.513,3.5128,3.514,3.5088,3.5069,3.5116,3.5116,3.5116,3.5116,3.5116,3.5116,3.4097,3.4185,3.4223,3.4341,3.4395,3.4483,3.4526,3.4587,3.4645,3.4755,3.4825,3.4873,3.4947,3.5041,3.5119,3.5139,3.5171,3.5173,3.5197,3.5148,3.5143,3.5139,3.5122,3.5179,3.5179,3.5243,3.5244,3.5244]}]]